Location: Ferchesar
(52.6477°N, 12.4298°E)
Time: 03:43:53
(UTC+02:00)

Vanguard 3 - Pass Details

Date: 28 February 2021
Orbit: 508 x 3262 km, 33.3° (Epoch: 15 April)

Event Time Altitude Azimuth Distance (km) Brightness Sun altitude
Rises 19:46:45 0° 257° (WSW) 6,292 12.8 -18.8°
Reaches altitude 10° 19:52:37 10° 245° (WSW) 4,769 11.8 -19.6°
Maximum altitude 20:01:08 22° 203° (SSW) 3,035 10.1 -20.9°
Enters shadow 20:06:22 12° 161° (SSE) 3,080 9.8 -21.6°
Drops below altitude 10° 20:07:06 10° 156° (SSE) 3,182 - -21.7°
Sets 20:10:04 0° 140° (SE) 3,787 - -22.2°
